No particular awareness of the weather is required.    There are no Weather-warnings




My webcam more information My webcam


Meteosat more information Meteosat


Radar de pluja more information rain snow radar


Visita la nostra xarxa de llocs de meteo:

Template documentation
and downloads

And another site



Select another period ( hide this area )

Unitats Periode Custom range Directly to
Mètric Imperial Tant
Diari Setmana Mensual Anual
use both date-selectors for a custom range
previous Dia
With this date

WeatherUnderground graphs for this period ( click here )


Warning: Division by zero in /var/www/vhosts/5/103384/webspace/httpdocs/santgenismeteo.org/weather28/wu/WU-History4.php on line 835
Diari Resum Dilluns 21 January 2019
Temps Temp. ( °C ) Dew pt. ( °C ) Vent ( km/h ) des Rafegues ( km/h ) Pression baro ( hPa ) Humid.( % ) Rainrate ( cm ) Solar ( W/m2 )
Maxima12,5 2,6 16,6 Est ( 628/901 ) 23,8 1014,4 78 - 0
Media7,5 1,7 4,5 Est #98/200 7,1 1013,1 67 - 0 #0/200
Minima4,8 0,6 -   0,0 1011,4 50 -  
Diari Tabular details for Dilluns 21 January 2019
Temps Temp. ( °C ) Dew pt. ( °C ) Vent ( km/h ) des Rafegues ( km/h ) Pression baro ( hPa ) Humid.( % ) Rainrate ( cm ) Solar ( W/m2 )
00:02 6,8 2,3 2,6 Est 5,8 1012,4 73 - -
00:07 7,0 2,3   calma 6,1 1012,4 72 - -
00:12 7,1 2,4 4,3 Est 7,6 1012,4 72 - -
00:17 7,2 2,3 5,5 Est 8,7 1012,4 71 - -
00:22 7,3 2,2 1,4 SE 1,4 1012,4 70 - -
00:27 7,0 1,9   calma 1,8 1012,4 70 - -
00:32 6,8 1,9   calma   1012,4 71 - -
00:37 6,7 2,0   calma   1012,4 72 - -
00:42 6,6 1,9   calma 1,4 1012,4 72 - -
00:47 6,7 2,0   calma   1012,4 72 - -
00:52 6,7 2,0 4,7 Est 5,0 1012,4 72 - -
00:57 6,7 2,0 5,0 Est 5,0 1012,4 72 - -
01:02 6,6 1,9 1,8 ENE 4,0 1012,4 72 - -
01:07 6,4 1,9   calma 2,6 1012,4 73 - -
01:12 6,4 1,9 1,4 SSW 1,4 1012,4 73 - -
01:17 6,4 2,1   calma 2,1 1012,4 74 - -
01:22 6,4 2,1   calma 4,0 1012,4 74 - -
01:27 6,4 2,1 3,2 Est 4,0 1012,4 74 - -
01:32 6,4 2,1   calma   1012,4 74 - -
01:37 6,4 2,1 1,4 WSW 1,4 1012,4 74 - -
01:42 6,4 2,1 2,1 West 6,4 1012,4 74 - -
01:47 6,5 2,2 4,0 Est 9,0 1012,4 74 - -
01:52 6,7 2,0   calma 5,5 1012,4 72 - -
01:57 6,8 1,9   calma 7,9 1012,4 71 - -
02:02 6,9 2,0   calma 7,6 1012,4 71 - -
02:07 7,0 1,7 4,3 ENE 10,5 1012,4 69 - -
02:12 7,1 1,8 7,9 Est 7,9 1012,4 69 - -
02:17 7,1 1,8 4,7 SW 9,3 1012,4 69 - -
02:22 7,0 1,7 2,1 Est 9,3 1012,4 69 - -
02:27 6,8 1,9 4,7 Est 13,0 1012,4 71 - -
02:32 6,8 1,9 6,1 Est 10,5 1012,4 71 - -
02:37 6,8 1,9   calma 10,5 1012,4 71 - -
02:42 6,8 1,7 3,2 Est 13,7 1012,4 70 - -
02:47 6,8 1,7 14,0 Est 14,0 1012,4 70 - -
02:52 6,8 1,7 8,7 Est 10,1 1012,4 70 - -
02:57 6,7 1,6 5,0 Est 9,7 1012,4 70 - -
03:02 6,9 1,4 11,9 Est 11,9 1012,4 68 - -
03:07 7,1 1,2 3,5 Est 13,0 1012,4 66 - -
03:12 7,1 1,2 11,6 Est 13,0 1011,4 66 - -
03:17 7,0 1,3 5,8 Est 14,8 1011,4 67 - -
03:22 6,8 1,5 11,1 NE 11,1 1011,4 69 - -
03:27 6,6 1,7 10,1 Est 10,5 1012,4 71 - -
03:32 6,4 1,9 4,7 Est 11,9 1012,4 73 - -
03:37 6,3 1,8 1,8 Est 6,1 1012,4 73 - -
03:42 6,2 2,1 10,5 Est 10,5 1012,4 75 - -
03:47 6,1 2,2 6,9 WNW 13,0 1012,4 76 - -
03:52 6,0 2,1 13,7 Est 13,7 1012,4 76 - -
03:57 5,9 2,2 10,5 SSE 10,5 1012,4 77 - -
04:02 5,8 2,3 4,7 Est 12,2 1012,4 78 - -
04:07 5,8 2,3 2,1 Est 11,9 1012,4 78 - -
04:12 5,7 2,2 9,3 SE 12,2 1012,4 78 - -
04:17 5,7 2,2 2,6 Est 9,7 1012,4 78 - -
04:22 5,7 2,2 1,8 Est 6,1 1012,4 78 - -
04:27 5,8 2,3 6,9 Est 6,9 1012,4 78 - -
04:32 5,9 2,2 10,5 Est 10,5 1012,4 77 - -
04:37 5,9 2,2 7,9 Est 9,3 1012,4 77 - -
04:42 5,9 2,2 2,6 Est 8,7 1012,4 77 - -
04:47 5,9 2,2 1,4 ENE 2,6 1012,4 77 - -
04:52 5,9 2,2 4,3 ENE 5,5 1012,4 77 - -
04:57 6,0 2,1 3,5 Est 7,6 1011,4 76 - -
05:02 5,9 2,0 11,9 Est 11,9 1011,4 76 - -
05:07 6,0 2,1 6,9 Est 13,7 1011,4 76 - -
05:12 6,0 1,9 6,4 West 11,1 1012,4 75 - -
05:17 5,9 2,0 9,0 Est 15,8 1012,4 76 - -
05:22 6,0 1,9 4,0 Est 12,2 1012,4 75 - -
05:27 6,0 1,9 4,0 ESE 9,7 1012,4 75 - -
05:32 5,9 2,0 1,8 Est 10,8 1012,4 76 - -
05:37 5,9 2,0 8,7 Est 10,5 1012,4 76 - -
05:42 5,8 1,9 2,6 Est 6,9 1012,4 76 - -
05:47 5,8 1,9 6,9 Est 8,7 1012,4 76 - -
05:52 5,9 2,0 1,8 SE 6,1 1012,4 76 - -
05:57 5,8 1,9 8,7 Est 9,7 1012,4 76 - -
06:02 5,8 1,9 6,1 NNE 10,5 1012,4 76 - -
06:07 5,7 1,8 7,6 West 7,6 1012,4 76 - -
06:12 5,7 1,8 10,1 Est 10,1 1012,4 76 - -
06:17 5,7 1,8 5,5 Est 10,1 1012,4 76 - -
06:22 5,7 1,8 5,5 West 5,5 1012,4 76 - -
06:27 5,7 1,8 4,0 West 4,0 1013,4 76 - -
06:32 5,7 1,8 1,8 WNW 4,0 1013,4 76 - -
06:37 5,7 1,8 3,5 NE 3,5 1013,4 76 - -
06:42 5,7 1,6 7,9 Est 9,0 1013,4 75 - -
06:47 5,7 1,6 6,4 Est 10,1 1013,4 75 - -
06:52 5,6 1,5   calma 6,4 1013,4 75 - -
06:57 5,6 1,5 1,4 NE 6,1 1013,4 75 - -
07:02 5,4 1,3 4,0 Est 11,1 1013,4 75 - -
07:07 5,2 1,3 3,2 WNW 7,9 1013,4 76 - -
07:12 5,1 1,2 5,8 Est 6,4 1013,4 76 - -
07:17 5,0 1,1 1,4 Est 6,1 1013,4 76 - -
07:22 4,9 1,4 1,8 Est 5,0 1013,4 78 - -
07:27 4,8 1,3 6,9 Est 9,7 1012,4 78 - -
07:32 4,8 1,3 16,6 Est 16,6 1012,4 78 - -
07:37 4,8 1,3 7,9 Est 23,8 1012,4 78 - -
07:42 4,8 1,3 4,3 ENE 13,7 1014,4 78 - -
07:47 4,8 1,3 2,6 Est 6,9 1014,4 78 - -
07:52 4,9 1,2 2,6 Est 2,6 1014,4 77 - -
07:57 5,0 1,1 7,6 NE 7,6 1012,4 76 - -
08:02 5,0 1,1 6,4 WNW 7,6 1012,4 76 - -
08:07 5,1 1,0 9,0 Est 12,2 1012,4 75 - -
08:12 5,1 1,0 9,3 WSW 9,3 1013,4 75 - -
08:17 5,1 1,0 9,3 WSW 9,3 1013,4 75 - -
08:22 5,1 0,8 5,8 Est 12,2 1013,4 74 - -
08:27 5,2 0,9 7,9 ENE 9,7 1013,4 74 - -
08:32 5,3 0,9 7,9 ENE 7,9 1013,4 73 - -
08:37 5,3 0,9 7,9 Est 7,9 1013,4 73 - -
08:42 5,4 0,8 6,4 Est 7,9 1012,4 72 - -
08:47 5,6 1,0 6,4 Est 6,4 1012,4 72 - -
08:52 5,7 0,9 6,4 Est 6,4 1012,4 71 - -
08:57 5,8 0,8 6,4 Est 6,4 1012,4 70 - -
09:02 5,9 0,8 9,0 Est 9,0 1012,4 70 - -
09:07 6,0 0,7 9,0 Est 9,0 1012,4 69 - -
09:12 6,0 0,7 5,0 West 5,0 1013,4 69 - -
09:17 6,1 0,8 4,0 West 10,5 1013,4 69 - -
09:22 6,1 0,6 10,5 Est 10,5 1013,4 68 - -
09:27 6,2 0,7 4,0 SW 6,1 1013,4 68 - -
09:32 6,2 0,7 1,4 Est 1,4 1013,4 68 - -
09:37 6,3 0,8 1,4 Est 1,4 1013,4 68 - -
09:42 6,3 0,6 9,7 Est 9,7 1013,4 67 - -
09:47 6,4 0,7 6,4 ESE 7,6 1013,4 67 - -
09:52 6,4 0,7 6,4 North 10,1 1013,4 67 - -
09:57 6,4 0,7 4,3 West 10,8 1014,4 67 - -
10:02 6,5 0,8 4,7 Est 15,1 1014,4 67 - -
10:07 6,5 0,8 1,4 NNE 17,7 1014,4 67 - -
10:12 6,5 0,8 16,6 Est 16,6 1014,4 67 - -
10:17 6,5 0,8 6,4 ENE 6,4 1014,4 67 - -
10:22 6,6 0,9 15,8 Est 15,8 1014,4 67 - -
10:27 6,7 1,0 10,1 WSW 12,6 1014,4 67 - -
10:32 6,7 1,0 6,1 Est 11,9 1014,4 67 - -
10:37 6,7 0,8 3,2 Est 3,2 1014,4 66 - -
10:42 6,8 1,1 4,3 Est 4,3 1014,4 67 - -
10:47 6,8 1,1 9,0 Est 9,7 1014,4 67 - -
10:52 6,9 1,0 8,7 Est 8,7 1014,4 66 - -
10:57 6,9 1,2 8,7 Est 8,7 1014,4 67 - -
11:02 7,0 1,3 4,3 Est 10,5 1014,4 67 - -
11:07 7,2 1,3 7,9 Est 9,0 1014,4 66 - -
11:12 7,3 1,4 5,5 West 9,0 1014,4 66 - -
11:17 7,4 1,5 5,0 Est 6,1 1014,4 66 - -
11:22 7,5 1,6 7,6 NW 11,9 1014,4 66 - -
11:27 7,7 1,5 5,5 Est 6,4 1014,4 65 - -
11:32 7,7 1,3 13,7 Est 13,7 1014,4 64 - -
11:37 7,8 1,6 2,6 ENE 4,7 1014,4 65 - -
11:42 7,8 1,6 10,5 Est 10,5 1014,4 65 - -
11:47 7,9 1,7 4,7 Est 4,7 1014,4 65 - -
11:52 7,9 1,7 1,4 ESE 4,3 1014,4 65 - -
11:57 8,0 1,8 5,8 West 5,8 1014,4 65 - -
12:02 8,2 2,0 1,4 WSW 1,4 1014,4 65 - -
12:07 8,3 1,9 1,4 WNW 8,7 1014,4 64 - -
12:12 8,4 1,8 2,1 West 2,1 1014,4 63 - -
12:17 8,4 1,8 9,7 Est 9,7 1014,4 63 - -
12:22 8,6 2,0 5,8 Est 9,0 1014,4 63 - -
12:27 8,7 2,0 3,2 ESE 6,9 1014,4 63 - -
12:32 8,8 1,9 7,9 Est 7,9 1014,4 62 - -
12:37 9,0 2,1 1,8 West 6,9 1014,4 62 - -
12:42 9,2 2,3 1,8 ENE 5,8 1014,4 62 - -
12:47 9,4 2,3 2,1 Est 2,1 1014,4 61 - -
12:52 9,7 2,3 4,3 SSW 4,3 1014,4 60 - -
12:57 9,9 2,3 5,0 ESE 5,0 1014,4 59 - -
13:02 10,1 2,0 5,5 Est 5,5 1014,4 57 - -
13:07 10,1 2,0 5,5 Est 5,5 1014,4 57 - -
13:12 10,3 1,9 5,0 Est 6,9 1014,4 56 - -
13:17 10,3 1,9   calma 2,1 1014,4 56 - -
13:22 10,5 2,1   calma   1014,4 56 - -
13:27 10,6 2,2 4,3 Est 7,6 1014,4 56 - -
13:32 10,7 2,3 4,3 ENE 4,3 1014,4 56 - -
13:37 10,8 2,1 4,7 Est 4,7 1014,4 55 - -
13:42 10,8 1,9 3,2 SE 6,1 1013,4 54 - -
13:47 10,9 2,0   calma 2,6 1013,4 54 - -
13:52 11,0 1,8   calma 1,4 1013,4 53 - -
13:57 11,1 1,9   calma 4,0 1013,4 53 - -
14:02 11,2 2,0 4,0 ESE 4,0 1013,4 53 - -
14:07 11,4 2,2 1,8 NW 1,8 1013,4 53 - -
14:12 11,3 1,8 2,1 Est 6,4 1013,4 52 - -
14:17 11,3 1,8 1,8 Est 5,8 1013,4 52 - -
14:22 11,3 1,5 6,4 Est 6,4 1013,4 51 - -
14:27 11,2 1,2   calma 4,3 1012,4 50 - -
14:32 11,2 1,2 1,4 SE 6,1 1012,4 50 - -
14:37 11,2 1,4   calma 5,5 1012,4 51 - -
14:42 11,2 1,4 6,1 Est 6,9 1012,4 51 - -
14:47 11,2 1,7 1,4 ESE 1,4 1012,4 52 - -
14:52 11,3 1,8   calma 5,0 1012,4 52 - -
14:57 11,3 1,8 3,5 ESE 3,5 1013,4 52 - -
15:02 11,2 1,4 5,5 Est 5,5 1013,4 51 - -
15:07 11,4 1,9   calma   1013,4 52 - -
15:12 11,5 1,7 1,8 ESE 1,8 1013,4 51 - -
15:17 11,7 1,9   calma   1013,4 51 - -
15:22 11,8 2,0   calma 4,3 1013,4 51 - -
15:27 12,0 1,9   calma   1013,4 50 - -
15:32 12,1 2,3   calma   1013,4 51 - -
15:37 12,2 2,1   calma   1013,4 50 - -
15:42 12,4 2,5   calma   1013,4 51 - -
15:47 12,5 2,6   calma 1,8 1013,4 51 - -
15:52 12,4 2,3   calma   1013,4 50 - -
15:57 12,4 2,3   calma 1,8 1013,4 50 - -
16:02 12,4 2,3 1,4 NE 2,1 1013,4 50 - -
16:07 12,2 2,1   calma   1013,4 50 - -
16:12 12,2 2,1   calma   1013,4 50 - -
16:17 12,2 2,1   calma   1013,4 50 - -
16:22 12,2 2,1   calma   1013,4 50 - -
16:27 12,1 2,0   calma 2,6 1013,4 50 - -
16:32 12,0 1,9   calma   1013,4 50 - -
16:37 11,9 2,1   calma   1013,4 51 - -
Diari Resum Dilluns 21 January 2019
Temps Temp. ( °C ) Dew pt. ( °C ) Vent ( km/h ) des Rafegues ( km/h ) Pression baro ( hPa ) Humid.( % ) Rainrate ( cm ) Solar ( W/m2 )
Maxima12,5 2,6 16,6 Est ( 628/901 ) 23,8 1014,4 78 - 0
Media7,5 1,7 4,5 Est #98/200 7,1 1013,1 67 - 0 #0/200
Minima4,8 0,6 -   0,0 1011,4 50 -  
Diari Tabular details for Dilluns 21 January 2019
Temps Temp. ( °C ) Dew pt. ( °C ) Vent ( km/h ) des Rafegues ( km/h ) Pression baro ( hPa ) Humid.( % ) Rainrate ( cm ) Solar ( W/m2 )
00:02 6,8 2,3 2,6 Est 5,8 1012,4 73 - -
00:07 7,0 2,3   calma 6,1 1012,4 72 - -
00:12 7,1 2,4 4,3 Est 7,6 1012,4 72 - -
00:17 7,2 2,3 5,5 Est 8,7 1012,4 71 - -
00:22 7,3 2,2 1,4 SE 1,4 1012,4 70 - -
00:27 7,0 1,9   calma 1,8 1012,4 70 - -
00:32 6,8 1,9   calma   1012,4 71 - -
00:37 6,7 2,0   calma   1012,4 72 - -
00:42 6,6 1,9   calma 1,4 1012,4 72 - -
00:47 6,7 2,0   calma   1012,4 72 - -
00:52 6,7 2,0 4,7 Est 5,0 1012,4 72 - -
00:57 6,7 2,0 5,0 Est 5,0 1012,4 72 - -
01:02 6,6 1,9 1,8 ENE 4,0 1012,4 72 - -
01:07 6,4 1,9   calma 2,6 1012,4 73 - -
01:12 6,4 1,9 1,4 SSW 1,4 1012,4 73 - -
01:17 6,4 2,1   calma 2,1 1012,4 74 - -
01:22 6,4 2,1   calma 4,0 1012,4 74 - -
01:27 6,4 2,1 3,2 Est 4,0 1012,4 74 - -
01:32 6,4 2,1   calma   1012,4 74 - -
01:37 6,4 2,1 1,4 WSW 1,4 1012,4 74 - -
01:42 6,4 2,1 2,1 West 6,4 1012,4 74 - -
01:47 6,5 2,2 4,0 Est 9,0 1012,4 74 - -
01:52 6,7 2,0   calma 5,5 1012,4 72 - -
01:57 6,8 1,9   calma 7,9 1012,4 71 - -
02:02 6,9 2,0   calma 7,6 1012,4 71 - -
02:07 7,0 1,7 4,3 ENE 10,5 1012,4 69 - -
02:12 7,1 1,8 7,9 Est 7,9 1012,4 69 - -
02:17 7,1 1,8 4,7 SW 9,3 1012,4 69 - -
02:22 7,0 1,7 2,1 Est 9,3 1012,4 69 - -
02:27 6,8 1,9 4,7 Est 13,0 1012,4 71 - -
02:32 6,8 1,9 6,1 Est 10,5 1012,4 71 - -
02:37 6,8 1,9   calma 10,5 1012,4 71 - -
02:42 6,8 1,7 3,2 Est 13,7 1012,4 70 - -
02:47 6,8 1,7 14,0 Est 14,0 1012,4 70 - -
02:52 6,8 1,7 8,7 Est 10,1 1012,4 70 - -
02:57 6,7 1,6 5,0 Est 9,7 1012,4 70 - -
03:02 6,9 1,4 11,9 Est 11,9 1012,4 68 - -
03:07 7,1 1,2 3,5 Est 13,0 1012,4 66 - -
03:12 7,1 1,2 11,6 Est 13,0 1011,4 66 - -
03:17 7,0 1,3 5,8 Est 14,8 1011,4 67 - -
03:22 6,8 1,5 11,1 NE 11,1 1011,4 69 - -
03:27 6,6 1,7 10,1 Est 10,5 1012,4 71 - -
03:32 6,4 1,9 4,7 Est 11,9 1012,4 73 - -
03:37 6,3 1,8 1,8 Est 6,1 1012,4 73 - -
03:42 6,2 2,1 10,5 Est 10,5 1012,4 75 - -
03:47 6,1 2,2 6,9 WNW 13,0 1012,4 76 - -
03:52 6,0 2,1 13,7 Est 13,7 1012,4 76 - -
03:57 5,9 2,2 10,5 SSE 10,5 1012,4 77 - -
04:02 5,8 2,3 4,7 Est 12,2 1012,4 78 - -
04:07 5,8 2,3 2,1 Est 11,9 1012,4 78 - -
04:12 5,7 2,2 9,3 SE 12,2 1012,4 78 - -
04:17 5,7 2,2 2,6 Est 9,7 1012,4 78 - -
04:22 5,7 2,2 1,8 Est 6,1 1012,4 78 - -
04:27 5,8 2,3 6,9 Est 6,9 1012,4 78 - -
04:32 5,9 2,2 10,5 Est 10,5 1012,4 77 - -
04:37 5,9 2,2 7,9 Est 9,3 1012,4 77 - -
04:42 5,9 2,2 2,6 Est 8,7 1012,4 77 - -
04:47 5,9 2,2 1,4 ENE 2,6 1012,4 77 - -
04:52 5,9 2,2 4,3 ENE 5,5 1012,4 77 - -
04:57 6,0 2,1 3,5 Est 7,6 1011,4 76 - -
05:02 5,9 2,0 11,9 Est 11,9 1011,4 76 - -
05:07 6,0 2,1 6,9 Est 13,7 1011,4 76 - -
05:12 6,0 1,9 6,4 West 11,1 1012,4 75 - -
05:17 5,9 2,0 9,0 Est 15,8 1012,4 76 - -
05:22 6,0 1,9 4,0 Est 12,2 1012,4 75 - -
05:27 6,0 1,9 4,0 ESE 9,7 1012,4 75 - -
05:32 5,9 2,0 1,8 Est 10,8 1012,4 76 - -
05:37 5,9 2,0 8,7 Est 10,5 1012,4 76 - -
05:42 5,8 1,9 2,6 Est 6,9 1012,4 76 - -
05:47 5,8 1,9 6,9 Est 8,7 1012,4 76 - -
05:52 5,9 2,0 1,8 SE 6,1 1012,4 76 - -
05:57 5,8 1,9 8,7 Est 9,7 1012,4 76 - -
06:02 5,8 1,9 6,1 NNE 10,5 1012,4 76 - -
06:07 5,7 1,8 7,6 West 7,6 1012,4 76 - -
06:12 5,7 1,8 10,1 Est 10,1 1012,4 76 - -
06:17 5,7 1,8 5,5 Est 10,1 1012,4 76 - -
06:22 5,7 1,8 5,5 West 5,5 1012,4 76 - -
06:27 5,7 1,8 4,0 West 4,0 1013,4 76 - -
06:32 5,7 1,8 1,8 WNW 4,0 1013,4 76 - -
06:37 5,7 1,8 3,5 NE 3,5 1013,4 76 - -
06:42 5,7 1,6 7,9 Est 9,0 1013,4 75 - -
06:47 5,7 1,6 6,4 Est 10,1 1013,4 75 - -
06:52 5,6 1,5   calma 6,4 1013,4 75 - -
06:57 5,6 1,5 1,4 NE 6,1 1013,4 75 - -
07:02 5,4 1,3 4,0 Est 11,1 1013,4 75 - -
07:07 5,2 1,3 3,2 WNW 7,9 1013,4 76 - -
07:12 5,1 1,2 5,8 Est 6,4 1013,4 76 - -
07:17 5,0 1,1 1,4 Est 6,1 1013,4 76 - -
07:22 4,9 1,4 1,8 Est 5,0 1013,4 78 - -
07:27 4,8 1,3 6,9 Est 9,7 1012,4 78 - -
07:32 4,8 1,3 16,6 Est 16,6 1012,4 78 - -
07:37 4,8 1,3 7,9 Est 23,8 1012,4 78 - -
07:42 4,8 1,3 4,3 ENE 13,7 1014,4 78 - -
07:47 4,8 1,3 2,6 Est 6,9 1014,4 78 - -
07:52 4,9 1,2 2,6 Est 2,6 1014,4 77 - -
07:57 5,0 1,1 7,6 NE 7,6 1012,4 76 - -
08:02 5,0 1,1 6,4 WNW 7,6 1012,4 76 - -
08:07 5,1 1,0 9,0 Est 12,2 1012,4 75 - -
08:12 5,1 1,0 9,3 WSW 9,3 1013,4 75 - -
08:17 5,1 1,0 9,3 WSW 9,3 1013,4 75 - -
08:22 5,1 0,8 5,8 Est 12,2 1013,4 74 - -
08:27 5,2 0,9 7,9 ENE 9,7 1013,4 74 - -
08:32 5,3 0,9 7,9 ENE 7,9 1013,4 73 - -
08:37 5,3 0,9 7,9 Est 7,9 1013,4 73 - -
08:42 5,4 0,8 6,4 Est 7,9 1012,4 72 - -
08:47 5,6 1,0 6,4 Est 6,4 1012,4 72 - -
08:52 5,7 0,9 6,4 Est 6,4 1012,4 71 - -
08:57 5,8 0,8 6,4 Est 6,4 1012,4 70 - -
09:02 5,9 0,8 9,0 Est 9,0 1012,4 70 - -
09:07 6,0 0,7 9,0 Est 9,0 1012,4 69 - -
09:12 6,0 0,7 5,0 West 5,0 1013,4 69 - -
09:17 6,1 0,8 4,0 West 10,5 1013,4 69 - -
09:22 6,1 0,6 10,5 Est 10,5 1013,4 68 - -
09:27 6,2 0,7 4,0 SW 6,1 1013,4 68 - -
09:32 6,2 0,7 1,4 Est 1,4 1013,4 68 - -
09:37 6,3 0,8 1,4 Est 1,4 1013,4 68 - -
09:42 6,3 0,6 9,7 Est 9,7 1013,4 67 - -
09:47 6,4 0,7 6,4 ESE 7,6 1013,4 67 - -
09:52 6,4 0,7 6,4 North 10,1 1013,4 67 - -
09:57 6,4 0,7 4,3 West 10,8 1014,4 67 - -
10:02 6,5 0,8 4,7 Est 15,1 1014,4 67 - -
10:07 6,5 0,8 1,4 NNE 17,7 1014,4 67 - -
10:12 6,5 0,8 16,6 Est 16,6 1014,4 67 - -
10:17 6,5 0,8 6,4 ENE 6,4 1014,4 67 - -
10:22 6,6 0,9 15,8 Est 15,8 1014,4 67 - -
10:27 6,7 1,0 10,1 WSW 12,6 1014,4 67 - -
10:32 6,7 1,0 6,1 Est 11,9 1014,4 67 - -
10:37 6,7 0,8 3,2 Est 3,2 1014,4 66 - -
10:42 6,8 1,1 4,3 Est 4,3 1014,4 67 - -
10:47 6,8 1,1 9,0 Est 9,7 1014,4 67 - -
10:52 6,9 1,0 8,7 Est 8,7 1014,4 66 - -
10:57 6,9 1,2 8,7 Est 8,7 1014,4 67 - -
11:02 7,0 1,3 4,3 Est 10,5 1014,4 67 - -
11:07 7,2 1,3 7,9 Est 9,0 1014,4 66 - -
11:12 7,3 1,4 5,5 West 9,0 1014,4 66 - -
11:17 7,4 1,5 5,0 Est 6,1 1014,4 66 - -
11:22 7,5 1,6 7,6 NW 11,9 1014,4 66 - -
11:27 7,7 1,5 5,5 Est 6,4 1014,4 65 - -
11:32 7,7 1,3 13,7 Est 13,7 1014,4 64 - -
11:37 7,8 1,6 2,6 ENE 4,7 1014,4 65 - -
11:42 7,8 1,6 10,5 Est 10,5 1014,4 65 - -
11:47 7,9 1,7 4,7 Est 4,7 1014,4 65 - -
11:52 7,9 1,7 1,4 ESE 4,3 1014,4 65 - -
11:57 8,0 1,8 5,8 West 5,8 1014,4 65 - -
12:02 8,2 2,0 1,4 WSW 1,4 1014,4 65 - -
12:07 8,3 1,9 1,4 WNW 8,7 1014,4 64 - -
12:12 8,4 1,8 2,1 West 2,1 1014,4 63 - -
12:17 8,4 1,8 9,7 Est 9,7 1014,4 63 - -
12:22 8,6 2,0 5,8 Est 9,0 1014,4 63 - -
12:27 8,7 2,0 3,2 ESE 6,9 1014,4 63 - -
12:32 8,8 1,9 7,9 Est 7,9 1014,4 62 - -
12:37 9,0 2,1 1,8 West 6,9 1014,4 62 - -
12:42 9,2 2,3 1,8 ENE 5,8 1014,4 62 - -
12:47 9,4 2,3 2,1 Est 2,1 1014,4 61 - -
12:52 9,7 2,3 4,3 SSW 4,3 1014,4 60 - -
12:57 9,9 2,3 5,0 ESE 5,0 1014,4 59 - -
13:02 10,1 2,0 5,5 Est 5,5 1014,4 57 - -
13:07 10,1 2,0 5,5 Est 5,5 1014,4 57 - -
13:12 10,3 1,9 5,0 Est 6,9 1014,4 56 - -
13:17 10,3 1,9   calma 2,1 1014,4 56 - -
13:22 10,5 2,1   calma   1014,4 56 - -
13:27 10,6 2,2 4,3 Est 7,6 1014,4 56 - -
13:32 10,7 2,3 4,3 ENE 4,3 1014,4 56 - -
13:37 10,8 2,1 4,7 Est 4,7 1014,4 55 - -
13:42 10,8 1,9 3,2 SE 6,1 1013,4 54 - -
13:47 10,9 2,0   calma 2,6 1013,4 54 - -
13:52 11,0 1,8   calma 1,4 1013,4 53 - -
13:57 11,1 1,9   calma 4,0 1013,4 53 - -
14:02 11,2 2,0 4,0 ESE 4,0 1013,4 53 - -
14:07 11,4 2,2 1,8 NW 1,8 1013,4 53 - -
14:12 11,3 1,8 2,1 Est 6,4 1013,4 52 - -
14:17 11,3 1,8 1,8 Est 5,8 1013,4 52 - -
14:22 11,3 1,5 6,4 Est 6,4 1013,4 51 - -
14:27 11,2 1,2   calma 4,3 1012,4 50 - -
14:32 11,2 1,2 1,4 SE 6,1 1012,4 50 - -
14:37 11,2 1,4   calma 5,5 1012,4 51 - -
14:42 11,2 1,4 6,1 Est 6,9 1012,4 51 - -
14:47 11,2 1,7 1,4 ESE 1,4 1012,4 52 - -
14:52 11,3 1,8   calma 5,0 1012,4 52 - -
14:57 11,3 1,8 3,5 ESE 3,5 1013,4 52 - -
15:02 11,2 1,4 5,5 Est 5,5 1013,4 51 - -
15:07 11,4 1,9   calma   1013,4 52 - -
15:12 11,5 1,7 1,8 ESE 1,8 1013,4 51 - -
15:17 11,7 1,9   calma   1013,4 51 - -
15:22 11,8 2,0   calma 4,3 1013,4 51 - -
15:27 12,0 1,9   calma   1013,4 50 - -
15:32 12,1 2,3   calma   1013,4 51 - -
15:37 12,2 2,1   calma   1013,4 50 - -
15:42 12,4 2,5   calma   1013,4 51 - -
15:47 12,5 2,6   calma 1,8 1013,4 51 - -
15:52 12,4 2,3   calma   1013,4 50 - -
15:57 12,4 2,3   calma 1,8 1013,4 50 - -
16:02 12,4 2,3 1,4 NE 2,1 1013,4 50 - -
16:07 12,2 2,1   calma   1013,4 50 - -
16:12 12,2 2,1   calma   1013,4 50 - -
16:17 12,2 2,1   calma   1013,4 50 - -
16:22 12,2 2,1   calma   1013,4 50 - -
16:27 12,1 2,0   calma 2,6 1013,4 50 - -
16:32 12,0 1,9   calma   1013,4 50 - -
16:37 11,9 2,1   calma   1013,4 51 - -

Download your copy of this data-set  here

Our weather-data as stored at Weather Underground. Guio original per Jim McMurry. Adaptat per a la plantilla per Leuven-Template.eu

Trobareu la nostra informacio del temps tambe a:

European Weather Network

WeatherCloud

Weather Underground

Meteoclimatic

Equip utilitzat:

Weather-program
Weather Display

Weather-server
RaspberryPI 2

Proveidor

Weather Display

RaspberryPI 2